Location: Borovka
(49.7741°N, 14.5280°E)
Time: 17:42:23
(UTC+00:00)

COSMOS 2406 - Pass Details

Date: 17 November 2025
Orbit: 845 x 859 km, 71.0° (Epoch: 08 December)

Event Time Altitude Azimuth Distance (km) Brightness Sun altitude
Rises 16:34:42 0° 333° (NNW) 3,418 6.5 -12.6°
Reaches altitude 10° 16:37:21 10° 342° (NNW) 2,480 5.7 -13.0°
Maximum altitude 16:42:38 38° 50° (NE) 1,280 3.7 -13.8°
Enters shadow 16:47:01 14° 113° (ESE) 2,181 4.9 -14.5°
